Notices

What's New in latest Release from April 7th, 2021:

- Updated Glossary, including Speed of Maximum Gust, and Total Hourly Precipitation

- Updated national and regional climate services offices contacts and prices information

- Addition of station inventory lists for 1981-2010, 1971-2000, and 1961-1990 Normals.

If you haven't already, please take our survey and provide feedback about our website: https://eccc.sondage-survey.ca/f/LanguageSelection.aspx?s=442ca660-fcf1-47c0-95a9-59707d6fd709

Hourly Data Report for March 13, 2020

MIRAMICHI RCS
NEW BRUNSWICK
Current Station Operator: ECCC - MSC

47°00'34.000" N
65°27'54.000" W
33.00 m
8100989
71744
ACQ

Download Data

Hourly Data (March 2020)
Hourly Data Report for March 13, 2020
TIME
LST
Temp Definition
°C
Dew Point Definition
°C
Rel Hum Definition
%
Precip. Amount Definition
mm

Wind Dir Definition
10's deg

Wind Spd Definition
km/h
Visibility Definition
km
Stn Press Definition
kPa
Hmdx Definition


Wind Chill Definition


Weather Definition


00:00 -12.2 -13.2 92 LegendMM 9 5   102.38   -15 LegendNANA
01:00 -13.3 -14.7 89 LegendMM 4 3   102.43   -15 LegendNANA
02:00 -13.9 -14.9 92 LegendMM 8 4   102.47   -17 LegendNANA
03:00 -14.6 -16.8 83 LegendMM   0   102.48     LegendNANA
04:00 -15.4 -16.8 89 LegendMM 6 1   102.48   -16 LegendNANA
05:00 -15.3 -17.5 83 LegendMM   0   102.50     LegendNANA
06:00 -13.8 -15.5 86 LegendMM 7 2   102.49   -15 LegendNANA
07:00 -9.0 -11.1 85 LegendMM 6 13   102.36   -15 LegendNANA
08:00 -8.4 -10.7 83 LegendMM 4 8   102.43   -13 LegendNANA
09:00 -6.4 -8.8 83 LegendMM 7 6   102.43   -9 LegendNANA
10:00 -5.6 -8.4 81 LegendMM 7 17   102.29   -12 LegendNANA
11:00 -2.8 -6.1 78 LegendMM 8 15   102.14   -8 LegendNANA
12:00 -1.5 -3.8 84 LegendMM 10 17   101.96   -7 LegendNANA
13:00 -1.4 -2.5 92 LegendMM 10 16   101.77   -6 LegendNANA
14:00 -1.4 -2.2 95 LegendMM 9 22   101.47   -7 LegendNANA
15:00 -1.1 -2.2 92 LegendMM 10 25   101.14   -7 LegendNANA
16:00 -0.5 -2.1 89 LegendMM 10 34   100.82   -8 LegendNANA
17:00 0.3 -2.2 83 LegendMM 11 30   100.44     LegendNANA
18:00 0.7 -2.4 80 LegendMM 11 26   100.02     LegendNANA
19:00 0.7 -0.6 91 LegendMM 12 13   99.79     LegendNANA
20:00 0.5 -0.1 96 LegendMM 30 13   99.83     LegendNANA
21:00 0.3 -0.2 97 LegendMM 2 7   99.63     LegendNANA
22:00 0.1 -0.2 98 LegendMM 9 3   99.51     LegendNANA
23:00 0.3 -0.1 97 LegendMM 26 14   99.56     LegendNANA

Notes on Data Quality.

Legend

  • E = Estimated
  • M = Missing
  • NA = Not Available*
  • [empty] = Indicates an unobserved value
Date modified: